Location: Bonn
(50.7330°N, 7.1000°E)
Time: 00:09:20
(UTC+02:00)

Iridium 67 - Visible Passes

Search period start: 05 May 2015 00:00
Search period end: 15 May 2015 00:00
Orbit: 776 x 779 km, 86.4° (Epoch: 04 May)

Date Brightness Start Highest point End Pass type
(mag) Time Alt. Az. Time Alt. Az. Time Alt. Az.
05 May 7.9 01:06:24 10° WSW 01:09:37 16° WNW 01:12:40 10° NNW visible
05 May 5.8 22:51:17 21° SSE 22:54:32 52° E 22:59:37 10° NNE visible
06 May 7.3 00:31:44 12° SW 00:35:38 25° WNW 00:39:54 10° NNW visible
06 May 6.4 22:17:30 14° SE 22:21:09 32° E 22:25:46 10° NNE visible
06 May 6.6 23:57:57 16° SW 00:01:49 41° WNW 00:06:45 10° N visible
07 May 7.0 21:44:20 10° ESE 21:47:53 19° ENE 21:51:36 10° NNE visible
07 May 5.8 23:24:09 17° SSW 23:28:08 69° W 23:33:22 10° N visible
08 May 8.1 01:08:07 10° W 01:10:04 12° WNW 01:11:45 10° NW visible
08 May 5.5 22:50:19 15° S 22:54:35 72° E 22:59:49 10° N visible
09 May 7.8 00:32:14 10° WSW 00:35:59 19° WNW 00:39:37 10° NNW visible
09 May 6.0 22:16:28 11° SSE 22:21:09 43° E 22:26:05 10° NNE visible
09 May 7.1 23:57:27 10° SW 00:02:04 30° WNW 00:06:39 10° NNW visible
10 May 6.7 21:43:36 10° SE 21:47:49 26° E 21:52:07 10° NNE visible
10 May 6.3 23:23:14 10° SSW 23:28:18 50° W 23:33:24 10° N visible
11 May 5.6 22:49:27 10° S 22:54:41 84° W 22:59:57 10° N visible
12 May 8.1 00:33:31 10° W 00:36:24 14° WNW 00:39:04 10° NNW visible
12 May 5.7 22:16:05 10° SSE 22:21:11 59° E 22:26:19 10° N visible
12 May 7.6 23:58:13 10° WSW 00:02:23 23° WNW 00:06:27 10° NNW visible
13 May 6.3 21:43:07 10° SSE 21:47:47 35° E 21:52:31 10° NNE visible
13 May 6.9 23:23:41 10° SW 23:28:31 37° WNW 23:33:21 10° N visible
14 May 6.0 22:49:39 10° SSW 22:54:48 62° W 23:00:00 10° N visible
